When you browse on this site, cookies collect data to enhance your experience and personalize the content and advertising you see.
Visit our Privacy Policy to learn more. By continuing to use the site, you agree to this use of cookies and data.

Hourly Weather Kostrecy

Today, 7 July, Tuesday

Time Temperature Precipitation Wind Pressure Humidity
00:00 +19°C° 0.2 mm 2 mps 742 mmHg 97%
01:00 +19°C° 0.2 mm 2 mps 742 mmHg 97%
02:00 +19°C° 0.2 mm 2 mps 742 mmHg 97%
03:00 +19°C° 0.2 mm 2 mps 742 mmHg 97%
04:00 +19°C° 0.2 mm 2 mps 742 mmHg 96%
05:00 +20°C° 0.2 mm 2 mps 742 mmHg 96%
06:00 +21°C° 0.2 mm 2 mps 742 mmHg 92%
07:00 +23°C° 0.2 mm 2 mps 742 mmHg 87%
08:00 +24°C° 0.2 mm 2 mps 742 mmHg 82%
09:00 +25°C° 0.7 mm 2 mps 742 mmHg 83%
10:00 +25°C° 0.7 mm 2 mps 742 mmHg 85%
11:00 +26°C° 0.7 mm 3 mps 742 mmHg 86%
12:00 +26°C° 1.3 mm 2 mps 742 mmHg 85%
13:00 +26°C° 1.3 mm 2 mps 741 mmHg 84%
14:00 +26°C° 1.3 mm 2 mps 741 mmHg 84%
15:00 +25°C° 1.9 mm 2 mps 741 mmHg 86%
16:00 +25°C° 1.9 mm 2 mps 741 mmHg 89%
17:00 +24°C° 1.9 mm 2 mps 741 mmHg 91%
18:00 +23°C° 0.3 mm 2 mps 741 mmHg 93%
19:00 +21°C° 0.3 mm 2 mps 740 mmHg 95%
20:00 +19°C° 0.3 mm 2 mps 740 mmHg 97%
21:00 +19°C° 0.3 mm 1 mps 740 mmHg 97%
22:00 +19°C° 0.3 mm 1 mps 740 mmHg 98%
23:00 +18°C° 0.3 mm 1 mps 740 mmHg 98%

Tomorrow, 8 July, Wednesday

Time Temperature Precipitation Wind Pressure Humidity
00:00 +18°C° 1.9 mm 1 mps 740 mmHg 99%
01:00 +18°C° 1.9 mm 1 mps 740 mmHg 99%
02:00 +18°C° 1.9 mm 1 mps 739 mmHg 99%
03:00 +18°C° 0.2 mm 1 mps 739 mmHg 99%
04:00 +19°C° 0.2 mm 1 mps 739 mmHg 98%
05:00 +19°C° 0.2 mm 1 mps 739 mmHg 98%
06:00 +18°C° 0.1 mm 2 mps 739 mmHg 97%
07:00 +18°C° 0.1 mm 3 mps 739 mmHg 96%
08:00 +18°C° 0.1 mm 3 mps 739 mmHg 94%
09:00 +19°C° 0 mm 3 mps 739 mmHg 88%
10:00 +19°C° 0 mm 3 mps 740 mmHg 82%
11:00 +20°C° 0 mm 3 mps 740 mmHg 77%
12:00 +18°C° 1.9 mm 3 mps 740 mmHg 83%
13:00 +17°C° 1.9 mm 4 mps 740 mmHg 89%
14:00 +14°C° 1.9 mm 5 mps 741 mmHg 96%
15:00 +14°C° 0.8 mm 4 mps 741 mmHg 94%
16:00 +15°C° 0.8 mm 4 mps 742 mmHg 92%
17:00 +16°C° 0.8 mm 3 mps 742 mmHg 90%
18:00 +16°C° 0 mm 3 mps 743 mmHg 90%
19:00 +15°C° 0 mm 2 mps 743 mmHg 91%
20:00 +15°C° 0 mm 1 mps 744 mmHg 91%
21:00 +14°C° 0 mm 1 mps 744 mmHg 93%
22:00 +14°C° 0 mm 1 mps 744 mmHg 94%
23:00 +13°C° 0 mm 1 mps 744 mmHg 95%

Day after tomorrow, 9 July, Thursday

Time Temperature Precipitation Wind Pressure Humidity
00:00 +13°C° 0 mm 1 mps 744 mmHg 95%
01:00 +12°C° 0 mm 1 mps 744 mmHg 95%
02:00 +12°C° 0 mm 1 mps 745 mmHg 95%
03:00 +12°C° 0 mm 1 mps 745 mmHg 94%
04:00 +13°C° 0 mm 1 mps 745 mmHg 92%
05:00 +13°C° 0 mm 1 mps 744 mmHg 90%
06:00 +15°C° 0 mm 1 mps 745 mmHg 82%
07:00 +18°C° 0 mm 1 mps 745 mmHg 75%
08:00 +20°C° 0 mm 1 mps 745 mmHg 68%
09:00 +21°C° 0.1 mm 1 mps 745 mmHg 65%
10:00 +22°C° 0.1 mm 1 mps 745 mmHg 62%
11:00 +23°C° 0.1 mm 1 mps 745 mmHg 60%
12:00 +22°C° 0.3 mm 1 mps 745 mmHg 63%
13:00 +21°C° 0.3 mm 1 mps 745 mmHg 66%
14:00 +20°C° 0.3 mm 2 mps 744 mmHg 69%
15:00 +20°C° 0.3 mm 1 mps 744 mmHg 73%
16:00 +20°C° 0.3 mm 1 mps 744 mmHg 77%
17:00 +19°C° 0.3 mm 1 mps 744 mmHg 81%
18:00 +18°C° 0.1 mm 1 mps 744 mmHg 83%
19:00 +16°C° 0.1 mm 1 mps 744 mmHg 84%
20:00 +15°C° 0.1 mm 2 mps 744 mmHg 86%
21:00 +14°C° 0 mm 2 mps 744 mmHg 87%
22:00 +13°C° 0 mm 2 mps 744 mmHg 88%
23:00 +13°C° 0 mm 2 mps 745 mmHg 89%

10 July, Friday

Time Temperature Precipitation Wind Pressure Humidity
00:00 +11°C° 0 mm 3 mps 745 mmHg 90%
01:00 +11°C° 0 mm 3 mps 745 mmHg 91%
02:00 +10°C° 0 mm 3 mps 745 mmHg 92%
03:00 +11°C° 0 mm 3 mps 746 mmHg 91%
04:00 +11°C° 0 mm 3 mps 746 mmHg 90%
05:00 +12°C° 0 mm 3 mps 746 mmHg 89%
06:00 +13°C° 0 mm 4 mps 747 mmHg 80%
07:00 +15°C° 0 mm 4 mps 747 mmHg 71%
08:00 +17°C° 0 mm 4 mps 747 mmHg 62%
09:00 +18°C° 0 mm 4 mps 747 mmHg 56%
10:00 +19°C° 0 mm 5 mps 748 mmHg 50%
11:00 +20°C° 0 mm 5 mps 748 mmHg 44%
12:00 +21°C° 0 mm 5 mps 748 mmHg 42%
13:00 +21°C° 0 mm 5 mps 748 mmHg 40%
14:00 +22°C° 0 mm 5 mps 748 mmHg 38%
15:00 +21°C° 0 mm 4 mps 749 mmHg 41%
16:00 +21°C° 0 mm 4 mps 749 mmHg 44%
17:00 +21°C° 0 mm 3 mps 749 mmHg 47%
18:00 +19°C° 0 mm 2 mps 749 mmHg 56%
19:00 +17°C° 0 mm 2 mps 749 mmHg 65%
20:00 +15°C° 0 mm 1 mps 749 mmHg 74%
21:00 +15°C° 0 mm 1 mps 749 mmHg 75%
22:00 +14°C° 0 mm 1 mps 750 mmHg 77%
23:00 +13°C° 0 mm 1 mps 750 mmHg 79%

11 July, Saturday

Time Temperature Precipitation Wind Pressure Humidity
00:00 +12°C° 0 mm 2 mps 750 mmHg 81%
01:00 +12°C° 0 mm 2 mps 750 mmHg 84%
02:00 +12°C° 0 mm 2 mps 750 mmHg 86%
03:00 +12°C° 0 mm 2 mps 750 mmHg 84%
04:00 +13°C° 0 mm 2 mps 750 mmHg 83%
05:00 +13°C° 0 mm 3 mps 750 mmHg 81%
06:00 +16°C° 0 mm 3 mps 749 mmHg 75%
07:00 +18°C° 0 mm 4 mps 749 mmHg 69%
08:00 +20°C° 0 mm 4 mps 749 mmHg 63%
09:00 +21°C° 0 mm 5 mps 749 mmHg 60%
10:00 +23°C° 0 mm 5 mps 749 mmHg 56%
11:00 +24°C° 0 mm 6 mps 748 mmHg 53%
12:00 +24°C° 0 mm 6 mps 748 mmHg 54%
13:00 +26°C° 0 mm 5 mps 748 mmHg 54%
14:00 +26°C° 0 mm 5 mps 748 mmHg 54%
15:00 +26°C° 0 mm 5 mps 748 mmHg 59%
16:00 +25°C° 0 mm 4 mps 748 mmHg 63%
17:00 +25°C° 0 mm 4 mps 748 mmHg 68%
18:00 +24°C° 0.3 mm 3 mps 748 mmHg 75%
19:00 +21°C° 0.3 mm 3 mps 748 mmHg 82%
20:00 +20°C° 0.3 mm 3 mps 748 mmHg 89%
21:00 +20°C° 0.7 mm 3 mps 748 mmHg 91%
22:00 +19°C° 0.7 mm 3 mps 748 mmHg 93%
23:00 +19°C° 0.7 mm 3 mps 748 mmHg 96%

12 July, Sunday

Time Temperature Precipitation Wind Pressure Humidity
00:00 +19°C° 1.1 mm 2 mps 747 mmHg 96%
01:00 +18°C° 1.1 mm 2 mps 747 mmHg 97%
02:00 +18°C° 1.1 mm 2 mps 747 mmHg 98%
03:00 +18°C° 0.9 mm 2 mps 747 mmHg 98%
04:00 +18°C° 0.9 mm 2 mps 747 mmHg 98%
05:00 +18°C° 0.9 mm 2 mps 747 mmHg 98%
06:00 +18°C° 0.1 mm 2 mps 747 mmHg 97%
07:00 +18°C° 0.1 mm 2 mps 747 mmHg 96%
08:00 +19°C° 0.1 mm 3 mps 746 mmHg 95%
09:00 +20°C° 0.3 mm 3 mps 746 mmHg 88%
10:00 +22°C° 0.3 mm 4 mps 746 mmHg 82%
11:00 +23°C° 0.3 mm 5 mps 746 mmHg 76%
12:00 +22°C° 0.5 mm 4 mps 746 mmHg 79%
13:00 +21°C° 0.5 mm 4 mps 746 mmHg 82%
14:00 +20°C° 0.5 mm 3 mps 746 mmHg 86%
15:00 +20°C° 0.3 mm 3 mps 746 mmHg 86%
16:00 +19°C° 0.3 mm 2 mps 746 mmHg 86%
17:00 +19°C° 0.3 mm 2 mps 746 mmHg 87%
18:00 +18°C° 0.2 mm 2 mps 746 mmHg 89%
19:00 +17°C° 0.2 mm 2 mps 746 mmHg 92%
20:00 +15°C° 0.2 mm 2 mps 746 mmHg 95%
21:00 +15°C° 0.6 mm 2 mps 746 mmHg 96%
22:00 +14°C° 0.6 mm 2 mps 746 mmHg 97%
23:00 +14°C° 0.6 mm 2 mps 745 mmHg 97%
Show more